ORBCOMM FM116

Last updated on Sat Aug 15 2026 00:03:10 GMT+0000 (Coordinated Universal Time)

1 41189U 15081L 26226.65061963 .00000161 00000+0 70189-4 0 9998 2 41189 47.0035 354.1790 0001866 308.5030 51.5688 14.58865610567479
UTC large
Height (km)
Speed (km/s)
/
Latitude / Longitude
Inclination (degrees)
Orbital Period (minutes)
Azimuth
Elevation
Range (km)
Doppler Factor

Next 0 passes for location: London (51.5072 / 0.1276)

No passes found over London.
ORBCOMM FM116